Location: Unspecified
(0.0000°N, 0.0000°E)
Time: 18:01:33
(UTC+00:00)

Vanguard 3 - Pass Details

Date: 07 February 2023
Orbit: 509 x 3249 km, 33.3° (Epoch: 20 March)

Event Time Altitude Azimuth Distance (km) Brightness Sun altitude
Rises 14:10:42 0° 248° (WSW) 2,603 10.3 57.4°
Reaches altitude 10° 14:12:51 10° 256° (WSW) 1,719 9.6 56.9°
Maximum altitude 14:16:20 40° 328° (NNW) 822 7.8 56.2°
Drops below altitude 10° 14:20:43 10° 38° (NE) 2,157 9.1 55.2°
Sets 14:23:44 0° 45° (NE) 3,387 10.0 54.5°
